Weather in Kozmodemyansk

Russia / Yaroslavl Oblast     57°29′29″N   39°41′16″E
temp.,
°C
wind,
m/s
gust,
m/s
humid.,
%
clouds,
%
prec.,
mm/h
press.,
hPa
HPBL,
m
25 february, thu
thu2500:00−14s61193100 0.4 1025439
03:00−13s61195100 2.5 1022403
06:00−12s71394100 2.5 1015428
09:00−9s5995100 4.4 1011298
12:00−6se2396100 1.1 101097
15:00−3nnw0196100 1.8 101084
18:00−2n1399100 0.5 1011103
21:00+1wnw4999100 0.5 1011338
26 february, fri
fri2600:00+1w3598100 0.0 1010178
03:00+1ssw22100100 0.3 100944
06:00+1ssw35100100 1.3 1006106
09:00+2sw49100100 3.3 1003224
12:00+2sw512100100 3.4 999333
15:00+2wsw616100100 6.8 997637
18:00+1w7159498 0.1 995757
21:00+1w8149799 0.7 995780
27 february, sat
sat2700:000wnw71397100 1.2 994731
03:00−4nw71588100 2.1 996551
06:00−9nnw71194100 0.6 998641
09:00−12n61092100 0.8 1002566
12:00−11n6989100 0.1 1005577
15:00−9n6989100 0.1 1008614
18:00−11n4993100 0.0 1010310
21:00−13n489599 0.1 1012204
28 february, sun
sun2800:00−15n359662 0.0 1014114
03:00−15nnw359653 0.0 1016103
06:00−18nnw37960 0.0 1017134
09:00−15nnw469529 0.0 1018260
12:00−11nnw369289 0.0 1018378
15:00−8nnw469194 0.1 1019488
18:00−9nw349599 0.1 1020102
21:00−11nw349795 0.1 102256
1 march, mon
mon100:00−7nw2496100 0.1 1023117
03:00−6wnw2496100 0.1 102494
06:00−8w339493 0.0 102429
09:00−7w379677 0.1 1024222
12:00−3wsw469596 0.1 1023297
15:00−1wsw599498 0.1 1022397
18:000w51292100 0.0 1020644
21:00+1w61392100 0.0 1018677